星链-5291 (STARLINK-5291 )

导读

STARLINK-5291是美国太空探索技术公司(SpaceX)星链(Starlink)互联网星座中的一颗卫星,于2023年1月19日发射入轨。星链项目旨在通过低地球轨道部署大量卫星,为全球尤其是偏远地区提供高速、低延迟的宽带互联网接入服务,STARLINK-5291的入轨进一步拓展了星链星座的覆盖能力与网络容量,支撑全球卫星互联网服务的稳定运行。

Basic Information
目录编号:
55273
目录名称:
STARLINK-5291
国际标识:
2023-010E
轨道中心:
EARTH
卫星名称:
星链-5291
卫星全名:
星链-5291 (STARLINK-5291 )
卫星状态:
在轨 (已飞行1243 天)
发射日期:
2023-01-19 UTC
国别 :
美国 (US)
星等 :
--
Orbit Information
数据来源 国际轨道数据 AOE轨道数据
星历时间 2026-06-15T01:16:09+0800
14小时前
查看轨道信息
2026-06-13T07:00:00+0800
2天前
查看轨道信息
半长轴 6950.194km 6950.184km
偏心率 0.0003672 0.000375
轨道倾角 69.999° 69.998°
近地点辐角 265.831° 265.434°
升交点赤经 159.668° 164.108°
平近点角 94.243° 317.391°
近地点 569.504km 569.44km
远地点 574.61km 574.654km
周期 96.107分钟 96.107分钟
每日圈数 14.983298 14.983331
Detailed Information
固有亮度:
5
最大亮度:
2.5
卫星平台:
Starlink v1.5
覆盖范围:
全球
运营商:
太空探索技术公司
运营商所在国:
美国
制造商(研发单位):
太空探索技术公司
制造商所在国:
美国
使用方式:
暂无
Satellite Introduction
星链(Starlink)计划是由太空探索技术公司(SpaceX)提出的一个巨型低轨卫星互联网星座项目,计划在2019年至2024年间在太空搭建由约1.2万颗卫星组成的“星链”网络,其中1584颗将部署在地球上空550千米处的近地轨道,并从2020年开始工作。该卫星仍在工作。
2D Orbit Map
3D Orbit Map
Orbit Altitude Analysis Chart
Orbit Inclination Analysis Chart
Orbit Comprehensive Analysis Chart
View Comprehensive Chart